Content
SEND FEEDBACK

Daily
Averages
Monthly
Summary
Canada

INGONISH BEACH, NOVA SCOTIA


Home > North America > Canada > Nova Scotia
Elevation: 16 feet     Latitude: 46 39N     Longitude: 060 24W

WEATHER
 
SELECT A DAY
Number of Records: 127,936;   Date Range: 12/10/00 - 8/26/14
 
SHARE

PRINT THIS DATA

[ ← Previous Day ]
WEATHER ALMANAC - FEBRUARY 24, 2013
[ Next Day → ]
[ °C ]   °F
Weather ElementAverageHighLow
Temperature16.8 °F29.8 °F (10:00 am)5.5 °F (7:00 am)
Dewpoint10.1 °F16.3 °F (5:00 pm)3 °F (7:00 am)
Humidity76 %94 % (10:00 pm)43 % (2:00 pm)
Barometer30.06 in30.19 in (1:00 am)29.91 in (11:00 pm)
Wind Speed1.9 mph4.6 mph (1:00 pm)
Weather ElementAverage
Wind DirectionESE (120.7 °)

Weather ElementTotal
Precipitation---
Heating Degree Days47.4 (Base 65)
Averaged from 27 records on February 24, 2013
WEATHER CONDITIONS BREAKOUT
WIND DIRECTION BREAKOUT
WEATHER BY HOUR - FEBRUARY 24, 2013
[ °C ]   °F
Local TimeTemperatureDewpointHumidityBarometerVisibilityWind DirectionWind SpeedGust SpeedPrecipitationEventsConditions
1:00 AM8.4 °F6.6 °F92 %30.19 inEast (100°)1.2 mph
2:00 AM7.0 °F5.0 °F87 %30.17 inNNE (30°)1.2 mph
2:00 AM7.0 °F5.0 °F92 %30.17 inNNE (30°)1.2 mph
3:00 AM7.0 °F5.2 °F92 %30.16 inCalm
4:00 AM5.9 °F3.6 °F90 %30.16 inWNW (300°)1.2 mph
5:00 AM6.1 °F3.7 °F90 %30.15 inEast (80°)1.2 mph
6:00 AM5.9 °F3.6 °F90 %30.14 inCalm
7:00 AM5.5 °F3.0 °F89 %30.14 inSW (220°)1.2 mph
8:00 AM13.0 °F7.0 °F66 %30.13 inESE (110°)1.2 mph
8:00 AM13.5 °F6.8 °F75 %30.13 inESE (110°)1.2 mph
9:00 AM23.9 °F11.1 °F58 %30.11 inSW (230°)1.2 mph
10:00 AM29.8 °F10.0 °F44 %30.10 inSE (140°)1.2 mph
11:00 AM26.1 °F10.9 °F53 %30.09 inEast (80°)3.5 mph
12:00 PM28.2 °F11.7 °F50 %30.07 inEast (90°)3.5 mph
1:00 PM28.4 °F12.9 °F52 %30.06 inEast (100°)4.6 mph
2:00 PM27.0 °F13.0 °F43 %30.04 inEast (80°)4.6 mph
2:00 PM27.1 °F13.5 °F56 %30.04 inEast (80°)4.6 mph
3:00 PM26.6 °F14.2 °F60 %30.02 inENE (70°)4.6 mph
4:00 PM26.2 °F14.0 °F60 %30.01 inEast (80°)1.2 mph
5:00 PM24.4 °F16.3 °F71 %30.01 inSE (130°)1.2 mph
6:00 PM19.4 °F16.3 °F88 %29.98 inWSW (240°)2.3 mph
7:00 PM16.7 °F14.7 °F92 %29.96 inWSW (240°)1.2 mph
8:00 PM16.0 °F14.0 °F89 %29.96 inNorth (10°)1.2 mph
8:00 PM15.8 °F14.2 °F93 %29.96 inNorth (10°)1.2 mph
9:00 PM13.3 °F11.7 °F93 %29.94 inSW (230°)2.3 mph
10:00 PM13.1 °F11.7 °F94 %29.93 inWSW (240°)1.2 mph
11:00 PM13.1 °F11.7 °F94 %29.91 inSW (230°)2.3 mph
Hourly data recorded from CXIB, located miles away from Ingonish Beach, Nova Scotia







STORIES FROM OUR PARTNERS